AGROMETEOROLOŠKI PORTAL

vinorodna pokrajina

Temelj dobrega kmetovanja

Pregled podatkov za lokacijo Vnajnarje, meteorološka postaja 27470

Pregled senzorjev na lokaciji

ID Ime Zadnja
vrednost
Datum in čas
meritve
(lokalni čas)
Tip
senzorja
3759 Omočenost lista (1,5 m) (U) 0 U 5.2.2023 23:30 A730WET
3756 Padavine (mm) 0 mm 5.2.2023 23:30 Generic 0.2 mm
3757 Relativna zračna vlaga (2 m) (%RH) 71 %RH 5.2.2023 23:30 Generic 0 - 100 %
3758 Temperatura (2 m) (°C) -5,1 °C 5.2.2023 23:30 Generic -40 - +60 °C

Pregled podatkov zadnjih 24 ur

Zap.
št.
Datum in čas
(lokalni čas)
Vnajnarje
Omočenost
lista
(1,5
m)
Padavine Relativna
zračna
vlaga
(2
m)
Temperatura
(2
m)
1 5.2.2023 23:30 0 0 70,5 -5,1
2 5.2.2023 23:00 0 0 68,9 -4,9
3 5.2.2023 22:30 0 0 66,8 -4,5
4 5.2.2023 22:00 0 0 65,7 -4,2
5 5.2.2023 21:30 0 0 64,7 -4,1
6 5.2.2023 21:00 0 0 64,3 -3,8
7 5.2.2023 20:30 0 0 62,5 -3,4
8 5.2.2023 20:00 0 0 64,5 -3,5
9 5.2.2023 19:30 0 0 63,2 -3,2
10 5.2.2023 19:00 0 0 61,6 -2,9
11 5.2.2023 18:30 0 0 63 -3
12 5.2.2023 18:00 0 0 62 -2,8
13 5.2.2023 17:30 0 0 60,9 -2,5
14 5.2.2023 17:00 0 0 60,2 -2,4
15 5.2.2023 16:30 0 0 59,8 -2,2
16 5.2.2023 16:00 0 0 59,7 -1,9
17 5.2.2023 15:30 0 0 59,4 -1,6
18 5.2.2023 15:00 0 0 60,6 -2
19 5.2.2023 14:30 0 0 61,9 -1,8
20 5.2.2023 14:00 0 0 62 -2,1
21 5.2.2023 13:30 0 0 62,5 -2
22 5.2.2023 13:00 0 0 65,1 -2,3
23 5.2.2023 12:30 0 0 63,5 -2,1
24 5.2.2023 12:00 0 0 64,9 -1,9
25 5.2.2023 11:30 0 0 68,4 -2,1
26 5.2.2023 11:00 0 0 73,5 -2,8
27 5.2.2023 10:30 0 0 76,6 -3,2
28 5.2.2023 10:00 0 0 77,3 -3,6
29 5.2.2023 09:30 0 0 74,9 -3,4
30 5.2.2023 09:00 0 0 76,1 -3,8
31 5.2.2023 08:30 0 0 79,5 -4,3
32 5.2.2023 08:00 0 0 80,7 -4,6
33 5.2.2023 07:30 0 0 79 -4,4
34 5.2.2023 07:00 0 0 77 -4,1
35 5.2.2023 06:30 0 0 71,1 -3,8
36 5.2.2023 06:00 0 0 65,4 -3,4
37 5.2.2023 05:30 0 0 64,8 -3,4
38 5.2.2023 05:00 0 0 64,8 -3,3
39 5.2.2023 04:30 0 0 61,5 -3,2
40 5.2.2023 04:00 0 0 59,8 -3
41 5.2.2023 03:30 0 0 59,2 -3
42 5.2.2023 03:00 0 0 60,2 -3,1
43 5.2.2023 02:30 0 0 60,5 -3
44 5.2.2023 02:00 0 0 61,3 -2,9
45 5.2.2023 01:30 0 0 62,1 -2,8
46 5.2.2023 01:00 0 0 63,1 -2,8
47 5.2.2023 00:30 0 0 63,9 -2,6
48 5.2.2023 00:00 0 0 65,6 -2,6